Regional Weather Roundup
Issued by NWS Columbia, SC

Home | Current Version | Previous Version | Text Only | Print | Product List | Glossary On
Versions: 1 2 3 4 5 6 7 8 9 10 11 12 13 14 15 16 17 18 19 20 21 22 23 24 25 26 27 28 29 30 31 32 33 34 35 36 37 38 39 40 41 42 43 44 45 46 47 48 49 50
000
ASUS42 KCAE 260110
RWRCAE
REGIONAL WEATHER ROUNDUP
NATIONAL WEATHER SERVICE COLUMBIA SC
900 PM EDT WED MAY 25 2016

NOTE: "FAIR" INDICATES FEW OR NO CLOUDS BELOW 12,000 FEET WITH NO
SIGNIFICANT WEATHER AND/OR OBSTRUCTIONS TO VISIBILITY.

NOT ALL STATIONS ARE QUALITY CONTROLLED BY THE NATIONAL
WEATHER SERVICE. USE DATA WITH CAUTION...ESPECIALLY
DEWPOINT OBSERVATIONS.

SCZ001>056-GAZ040-063>065-077-260200-
...UPSTATE SOUTH CAROLINA...

CITY           SKY/WX    TMP DP  RH WIND       PRES   REMARKS
ANDERSON       CLEAR     77  59  53 CALM      30.18R
LIBERTY        CLEAR     72  61  67 CALM      30.19R
SPARTANBURG    CLEAR     72  59  64 CALM      30.17R
CLEMSON        CLEAR     79  58  48 CALM      30.19R
GREENVILLE     CLEAR     79  55  43 SW3       30.20R
GREENWOOD      CLEAR     74  56  53 CALM      30.19R
GREER          CLEAR     75  57  53 SW5       30.18R
ROCK HILL      CLEAR     74  59  59 CALM      30.17S
CHESTER        CLEAR     72  59  64 S3        30.18R
LAURENS        CLEAR     73  63  68 CALM      30.17S


...CENTRAL SOUTH CAROLINA...

CITY           SKY/WX    TMP DP  RH WIND       PRES   REMARKS
COLUMBIA APT   PTCLDY    82  55  39 CALM      30.15R
COLUMBIA OWENS CLEAR     79  57  46 CALM      30.16S
MCENTIRE ANGB  PTCLDY    75  62  64 CALM      30.16S
ORANGEBURG     CLEAR     75  59  57 CALM      30.16S
SUMTER SHAW    PTCLDY    77  65  66 SW2       30.14R
NEWBERRY       CLEAR     72  61  68 S3        30.20R
AIKEN          FAIR      73  54  49 S5        30.20S
BARNWELL       FAIR      79  64  61 CALM      30.17S
MANNING        FAIR      70  61  73 CALM      30.17R
LANCASTER      CLEAR     73  63  68 CALM      30.17S
WINNSBORO      CLEAR     77  59  53 CALM      30.17S


...EASTERN AND COASTAL SOUTH CAROLINA...

CITY           SKY/WX    TMP DP  RH WIND       PRES   REMARKS
MYRTLE BEACH   CLEAR     75  64  69 S12       30.21R
N MYRTLE BCH   CLEAR     75  69  81 S9        30.19R
CONWAY         FAIR      72  64  78 CALM      30.18R
MARION         FAIR      75  63  64 S3        30.17R
HARTSVILLE     FAIR      72  59  64 CALM      30.16S
FLORENCE       CLEAR     77  61  57 CALM      30.16R
DARLINGTON     PTCLDY    77  65  66 SW3       30.16
CHARLESTON APT PTCLDY    73  62  68 S8        30.18R
MOUNT PLEASANT   N/A     73  66  78 CALM      30.19S
WALTERBORO     CLEAR     77  63  61 S5        30.18S
BEAUFORT       CLEAR     75  65  70 S5        30.18S


...EASTERN GEORGIA...

CITY           SKY/WX    TMP DP  RH WIND       PRES   REMARKS
AUGUSTA BUSH F CLEAR     73  63  70 CALM      30.15R
AUGUSTA DANIEL CLEAR     83  56  39 S5        30.17R
THOMSON        CLEAR     76  67  72 CALM      30.22R
WASHINGTON     FAIR      77  61  57 CALM      30.18R
CLAXTON        FAIR      76  66  71 CALM      30.18R
SYLVANIA       CLEAR     78  66  67 CALM      30.18S
STATESBORO     CLEAR     78  66  65 SE5       30.18R
SAVANNAH       PTCLDY    75  62  64 S7        30.19R


...SOUTHERN NORTH CAROLINA...

CITY           SKY/WX    TMP DP  RH WIND       PRES   REMARKS
CHARLOTTE      PTCLDY    75  58  55 S5        30.17S
WADESBORO      CLEAR     74  57  55 CALM      30.15S
ROCKINGHAM     CLEAR     76  61  60 CALM      30.15S
RUTHERFORDTON  CLEAR     76  58  52 S3        30.19R
ASHEVILLE      PTCLDY    71  55  56 S3        30.24R

$$



USA.gov is the U.S. government's official web portal to all federal, state and local government web resources and services.